Flag for Switzerland Weather past 2 weeks in Geneva, Geneva, Switzerland

Now
59 °F

Cool.


Feels Like: 59 °F
Forecast: 54 / 74 °F
Wind: 2 mph from West

Location: Geneve-Cointrin

Current Time: Aug 28, 2014 at 4:04:35 AM

Latest Report: Aug 28, 2014 at 3:00 AM


Visibility: N/A

Pressure: 30.06 "Hg

Humidity: 89%

Dew point: 55 °F

Location of GenevaLocation

Historic Weather in Geneva — Graph

°F

Geneva temperature yesterday

Maximum temperature yesterday: 73 °F (at 4:00 PM)
Minimum temperature yesterday: 60 °F (at 7:00 AM)
Average temperature yesterday: 66 °F

Past Weeks' High & Low Weather Summary

 TemperatureHumidityPressure
High77 °F (Aug 18, 5:00 PM)94% (Aug 16, 3:00 AM)30.21 "Hg (Aug 16, 3:00 AM)
Low47 °F (Aug 17, 6:00 AM)36% (Aug 18, 4:00 PM)29.71 "Hg (Aug 13, 8:00 AM)
Average61 °F70%30.00 "Hg
* Reported Aug 13 2:00 AM — Aug 28 2:00 AM, Geneva, Weather by CustomWeather, © 2014

Note: Actual official high and low records may vary slightly from our data, if they occured in-between our weather recording intervals... More about our weather records

Advertising

Geneva weather history for previous 24 hours

 ConditionsComfort  
Time TempWeatherWind HumidityBarometerVisibility
2:00 AM
Aug 28
60 °FPassing clouds.2 mph86%30.06 "Hg25 mi
1:00 AM59 °FCool.3 mph83%30.06 "HgN/A
12:00 AM61 °FCool.2 mph83%30.05 "HgN/A
11:00 PM
Aug 27
62 °FPassing clouds.1 mph80%30.03 "Hg31 mi
10:00 PM62 °FCool.1 mph79%30.03 "HgN/A
9:00 PM64 °FMild.3 mph71%30.01 "HgN/A
8:00 PM67 °FPartly sunny.5 mph62%29.98 "Hg43 mi
7:00 PM70 °FMild.6 mph57%29.97 "HgN/A
6:00 PM70 °FMild.7 mph54%29.97 "HgN/A
5:00 PM72 °FScattered clouds.5 mph51%29.96 "Hg43 mi
4:00 PM73 °FMild.3 mph44%29.95 "HgN/A
3:00 PM72 °FMild.2 mph45%29.95 "HgN/A
2:00 PM71 °FScattered clouds.2 mph46%29.95 "Hg43 mi
1:00 PM71 °FMild.5 mph50%29.97 "HgN/A
12:00 PM69 °FMild.7 mph55%29.98 "HgN/A
11:00 AM68 °FPartly sunny.5 mph53%29.98 "Hg43 mi
10:00 AM68 °FMild.8 mph56%29.97 "HgN/A
9:00 AM65 °FMild.5 mph72%29.97 "HgN/A
8:00 AM63 °FScattered clouds.5 mph77%29.97 "Hg43 mi
7:00 AM60 °FCool.2 mph85%29.97 "HgN/A
6:00 AM61 °FCool.6 mph83%29.96 "HgN/A
5:00 AM62 °FPassing clouds.12 mph79%29.93 "Hg25 mi
4:00 AM63 °FMild.7 mph78%29.92 "HgN/A
Weather by CustomWeather, © 2014

See weather overviewHow to use our weather pages